�������l�o���
Date,Time,MP-1(��Sv/h),MP-2(��Sv/h),MP-3(��Sv/h),MP-4(��Sv/h),MP-5(��Sv/h),MP-6(��Sv/h),MP-7(��Sv/h),MP-8(��Sv/h),����,����(m/s),���J
2021/11/21,00:00,0.591,0.894,0.562,1.096,0.768,0.356,0.621,0.585,��,0.8,��
2021/11/21,00:10,0.593,0.893,0.562,1.098,0.767,0.354,0.622,0.584,���k��,1.1,��
2021/11/21,00:20,0.592,0.894,0.562,1.097,0.766,0.357,0.621,0.586,���k��,0.8,��
2021/11/21,00:30,0.592,0.892,0.563,1.094,0.766,0.357,0.621,0.585,���쐼,0.6,��
2021/11/21,00:40,0.590,0.893,0.562,1.096,0.766,0.356,0.621,0.585,���쐼,0.6,��
2021/11/21,00:50,0.590,0.891,0.562,1.093,0.768,0.358,0.621,0.585,�쐼,0.8,��
2021/11/21,01:00,0.592,0.892,0.562,1.096,0.766,0.357,0.621,0.584,���쐼,0.9,��
2021/11/21,01:10,0.592,0.892,0.562,1.095,0.767,0.357,0.620,0.584,���쐼,1.2,��
2021/11/21,01:20,0.592,0.891,0.562,1.094,0.766,0.356,0.621,0.587,���쐼,0.8,��
2021/11/21,01:30,0.592,0.892,0.562,1.097,0.765,0.357,0.622,0.585,��,1.0,��
2021/11/21,01:40,0.591,0.891,0.562,1.095,0.765,0.357,0.621,0.585,��,1.3,��
2021/11/21,01:50,0.590,0.891,0.564,1.098,0.766,0.358,0.621,0.584,��,1.5,��
2021/11/21,02:00,0.590,0.891,0.564,1.096,0.765,0.358,0.621,0.584,��,1.7,��
2021/11/21,02:10,0.591,0.893,0.564,1.097,0.765,0.357,0.623,0.585,��,1.7,��
2021/11/21,02:20,0.591,0.891,0.563,1.096,0.766,0.357,0.618,0.584,���쐼,1.2,��
2021/11/21,02:30,0.590,0.891,0.561,1.095,0.765,0.357,0.621,0.585,���쐼,0.9,��
2021/11/21,02:40,0.592,0.891,0.563,1.096,0.766,0.356,0.621,0.586,�쐼,1.4,��
2021/11/21,02:50,0.590,0.892,0.562,1.094,0.766,0.358,0.621,0.585,�쐼,1.7,��
2021/11/21,03:00,0.592,0.890,0.564,1.095,0.766,0.358,0.621,0.585,���쐼,2.0,��
2021/11/21,03:10,0.592,0.892,0.562,1.095,0.764,0.357,0.621,0.583,���쐼,2.0,��
2021/11/21,03:20,0.590,0.891,0.561,1.095,0.766,0.356,0.620,0.586,�쐼,1.6,��
2021/11/21,03:30,0.590,0.891,0.562,1.096,0.767,0.357,0.620,0.584,���쐼,1.7,��
2021/11/21,03:40,0.590,0.891,0.564,1.095,0.765,0.356,0.622,0.585,���쐼,2.0,��
2021/11/21,03:50,0.590,0.891,0.561,1.096,0.766,0.357,0.620,0.586,�쐼,2.6,��
2021/11/21,04:00,0.591,0.892,0.564,1.094,0.766,0.358,0.620,0.584,���쐼,2.9,��
2021/11/21,04:10,0.590,0.892,0.560,1.095,0.766,0.357,0.620,0.584,���쐼,2.3,��
2021/11/21,04:20,0.591,0.893,0.564,1.097,0.766,0.357,0.621,0.585,��,2.0,��
2021/11/21,04:30,0.591,0.893,0.562,1.096,0.765,0.357,0.621,0.586,�k��,2.0,��
2021/11/21,04:40,0.592,0.893,0.563,1.096,0.766,0.358,0.622,0.583,�k��,2.8,��
2021/11/21,04:50,0.591,0.893,0.562,1.098,0.764,0.357,0.621,0.585,�k�k��,4.0,��
2021/11/21,05:00,0.591,0.891,0.564,1.096,0.765,0.356,0.620,0.585,�k�k��,5.3,��
2021/11/21,05:10,0.590,0.893,0.563,1.097,0.766,0.357,0.622,0.585,�k�k��,5.1,��
2021/11/21,05:20,0.590,0.892,0.562,1.097,0.768,0.354,0.621,0.586,�k�k��,4.3,��
2021/11/21,05:30,0.590,0.893,0.561,1.095,0.765,0.357,0.622,0.584,�k�k��,5.0,��
2021/11/21,05:40,0.590,0.893,0.561,1.098,0.766,0.357,0.620,0.586,�k�k��,5.3,��
2021/11/21,05:50,0.590,0.889,0.562,1.096,0.766,0.357,0.621,0.586,�k�k��,5.4,��
2021/11/21,06:00,0.591,0.891,0.563,1.095,0.766,0.357,0.620,0.584,�k�k��,5.1,��
2021/11/21,06:10,0.590,0.892,0.563,1.095,0.765,0.357,0.621,0.585,�k�k��,4.5,��
2021/11/21,06:20,0.590,0.891,0.562,1.097,0.765,0.356,0.621,0.584,�k,3.6,��
2021/11/21,06:30,0.592,0.890,0.562,1.095,0.764,0.357,0.621,0.586,�k,2.6,��
2021/11/21,06:40,0.591,0.889,0.562,1.093,0.765,0.357,0.620,0.588,�k�k��,2.3,��
2021/11/21,06:50,0.591,0.891,0.563,1.095,0.766,0.357,0.620,0.583,�k,1.9,��
2021/11/21,07:00,0.591,0.893,0.561,1.094,0.766,0.357,0.621,0.585,�k,3.3,��
2021/11/21,07:10,0.591,0.894,0.563,1.096,0.766,0.357,0.621,0.585,�k,3.7,��
2021/11/21,07:20,0.592,0.892,0.563,1.095,0.765,0.356,0.622,0.585,�k�k��,4.5,��
2021/11/21,07:30,0.591,0.895,0.562,1.098,0.767,0.357,0.622,0.585,�k�k��,5.2,��
2021/11/21,07:40,0.592,0.890,0.562,1.096,0.765,0.356,0.621,0.585,�k�k��,4.7,��
2021/11/21,07:50,0.591,0.892,0.562,1.097,0.766,0.357,0.621,0.584,�k�k��,4.4,��
2021/11/21,08:00,0.591,0.895,0.564,1.095,0.768,0.357,0.622,0.584,�k�k��,4.0,��
2021/11/21,08:10,0.592,0.894,0.563,1.098,0.767,0.358,0.622,0.585,�k�k��,3.2,��
2021/11/21,08:20,0.593,0.895,0.563,1.095,0.767,0.357,0.623,0.585,�k�k��,3.7,��
2021/11/21,08:30,0.592,0.893,0.563,1.097,0.764,0.357,0.623,0.586,�k�k��,3.9,��
2021/11/21,08:40,0.593,0.892,0.563,1.096,0.766,0.358,0.621,0.585,�k�k��,3.9,��
2021/11/21,08:50,0.593,0.894,0.563,1.096,0.766,0.358,0.624,0.586,�k�k��,3.9,��
2021/11/21,09:00,0.592,0.893,0.563,1.099,0.767,0.357,0.624,0.586,�k,5.0,��
2021/11/21,09:10,0.593,0.893,0.564,1.098,0.766,0.357,0.621,0.585,�k�k��,4.6,��
2021/11/21,09:20,0.595,0.895,0.564,1.101,0.768,0.359,0.621,0.585,�k�k��,3.3,��
2021/11/21,09:30,0.592,0.895,0.565,1.097,0.767,0.358,0.620,0.586,�k,3.3,��
2021/11/21,09:40,0.594,0.895,0.565,1.097,0.770,0.359,0.621,0.587,�k�k��,3.3,��
2021/11/21,09:50,0.595,0.893,0.565,1.097,0.768,0.358,0.619,0.586,�k,3.2,��
2021/11/21,10:00,0.595,0.893,0.564,1.095,0.766,0.359,0.622,0.586,�k,3.7,��
2021/11/21,10:10,0.593,0.891,0.566,1.096,0.769,0.359,0.622,0.587,�k�k��,4.0,��
2021/11/21,10:20,0.592,0.892,0.564,1.098,0.766,0.359,0.621,0.587,�k�k��,3.9,��
2021/11/21,10:30,0.594,0.892,0.564,1.098,0.766,0.357,0.621,0.587,�k�k��,4.1,��
2021/11/21,10:40,0.594,0.892,0.563,1.100,0.769,0.358,0.621,0.587,�k�k��,4.4,��
2021/11/21,10:50,0.592,0.894,0.564,1.098,0.766,0.357,0.620,0.586,�k�k��,5.0,��
2021/11/21,11:00,0.593,0.892,0.565,1.097,0.769,0.357,0.622,0.588,�k�k��,4.7,��
2021/11/21,11:10,0.593,0.893,0.564,1.097,0.766,0.358,0.621,0.588,�k�k��,4.4,��
2021/11/21,11:20,0.592,0.891,0.563,1.096,0.767,0.357,0.622,0.587,�k�k��,4.6,��
2021/11/21,11:30,0.592,0.893,0.565,1.097,0.765,0.356,0.622,0.586,�k,4.9,��
2021/11/21,11:40,0.593,0.890,0.564,1.099,0.766,0.357,0.619,0.586,�k�k��,3.6,��
2021/11/21,11:50,0.591,0.891,0.563,1.098,0.767,0.358,0.621,0.586,�k�k��,3.8,��
2021/11/21,12:00,0.593,0.893,0.564,1.098,0.766,0.360,0.621,0.586,�k�k��,3.7,��
2021/11/21,12:10,0.593,0.893,0.566,1.097,0.765,0.358,0.622,0.586,�k�k��,3.6,��
2021/11/21,12:20,0.592,0.892,0.564,1.099,0.767,0.359,0.622,0.587,�k�k��,3.5,��
2021/11/21,12:30,0.594,0.891,0.565,1.099,0.767,0.359,0.621,0.587,�k�k��,3.7,��
2021/11/21,12:40,0.594,0.894,0.565,1.098,0.766,0.360,0.620,0.587,�k�k��,4.1,��
2021/11/21,12:50,0.594,0.893,0.566,1.097,0.765,0.358,0.621,0.585,�k�k��,3.8,��
2021/11/21,13:00,0.595,0.896,0.567,1.100,0.765,0.358,0.622,0.587,�k�k��,3.2,��
2021/11/21,13:10,0.593,0.893,0.565,1.097,0.768,0.358,0.622,0.584,�k�k��,3.4,��
2021/11/21,13:20,0.593,0.893,0.563,1.098,0.767,0.359,0.622,0.586,�k�k��,3.2,��
2021/11/21,13:30,0.593,0.896,0.564,1.096,0.765,0.358,0.621,0.585,�k�k��,3.0,��
2021/11/21,13:40,0.594,0.894,0.565,1.100,0.763,0.357,0.622,0.586,�k��,2.6,��
2021/11/21,13:50,0.592,0.890,0.565,1.098,0.765,0.359,0.621,0.583,�k�k��,2.5,��
2021/11/21,14:00,0.594,0.892,0.564,1.097,0.765,0.358,0.622,0.585,�k��,2.5,��
2021/11/21,14:10,0.595,0.893,0.565,1.098,0.768,0.359,0.622,0.586,�k��,2.2,��
2021/11/21,14:20,0.594,0.896,0.565,1.098,0.765,0.359,0.623,0.584,�k��,1.7,��
2021/11/21,14:30,0.595,0.897,0.565,1.097,0.769,0.359,0.622,0.586,�k��,1.5,��
2021/11/21,14:40,0.594,0.895,0.566,1.096,0.765,0.358,0.622,0.586,�k��,1.4,��
2021/11/21,14:50,0.595,0.895,0.565,1.096,0.768,0.359,0.622,0.585,�k,2.0,��
2021/11/21,15:00,0.593,0.896,0.564,1.098,0.767,0.359,0.623,0.587,�k�k��,1.2,��
2021/11/21,15:10,0.594,0.898,0.566,1.099,0.770,0.357,0.622,0.587,�k�k��,1.5,��
2021/11/21,15:20,0.594,0.896,0.562,1.098,0.769,0.358,0.624,0.588,�k,1.2,��
2021/11/21,15:30,0.594,0.896,0.564,1.098,0.769,0.358,0.623,0.587,�k,1.1,��
2021/11/21,15:40,0.595,0.894,0.567,1.097,0.769,0.357,0.622,0.587,�k�k��,1.2,��
2021/11/21,15:50,0.594,0.897,0.565,1.097,0.769,0.358,0.622,0.586,�k�k��,0.9,��
2021/11/21,16:00,0.596,0.896,0.564,1.097,0.771,0.358,0.623,0.586,�k�k��,1.1,��
2021/11/21,16:10,0.594,0.896,0.565,1.096,0.767,0.358,0.622,0.586,�k�k��,1.5,��
2021/11/21,16:20,0.596,0.894,0.563,1.099,0.768,0.358,0.622,0.588,�k�k��,1.7,��
2021/11/21,16:30,0.593,0.895,0.565,1.098,0.770,0.359,0.622,0.585,�k�k��,1.5,��
2021/11/21,16:40,0.592,0.897,0.564,1.097,0.768,0.359,0.623,0.585,�k�k��,1.5,��
2021/11/21,16:50,0.593,0.896,0.565,1.098,0.767,0.358,0.621,0.586,�k�k��,1.2,��
2021/11/21,17:00,0.593,0.896,0.565,1.098,0.768,0.358,0.623,0.586,�k�k��,1.5,��
2021/11/21,17:10,0.594,0.896,0.563,1.098,0.768,0.358,0.623,0.586,�k�k��,1.9,��
2021/11/21,17:20,0.595,0.897,0.563,1.099,0.768,0.357,0.623,0.587,�k,2.3,��
2021/11/21,17:30,0.594,0.894,0.565,1.098,0.769,0.358,0.623,0.588,�k�k��,1.9,��
2021/11/21,17:40,0.593,0.896,0.566,1.098,0.769,0.357,0.624,0.587,�k��,1.4,��
2021/11/21,17:50,0.594,0.895,0.565,1.098,0.766,0.356,0.622,0.586,��,1.2,��
2021/11/21,18:00,0.593,0.895,0.564,1.099,0.768,0.358,0.622,0.587,��,0.9,��
2021/11/21,18:10,0.595,0.896,0.565,1.098,0.769,0.357,0.624,0.588,��,0.6,��
2021/11/21,18:20,0.594,0.896,0.564,1.098,0.769,0.358,0.623,0.588,��,0.9,��
2021/11/21,18:30,0.594,0.895,0.564,1.096,0.769,0.358,0.621,0.587,���k��,1.4,��
2021/11/21,18:40,0.593,0.896,0.564,1.098,0.770,0.359,0.622,0.586,�k��,0.9,��
2021/11/21,18:50,0.594,0.896,0.565,1.097,0.768,0.358,0.622,0.585,�k��,1.1,��
2021/11/21,19:00,0.592,0.896,0.564,1.099,0.770,0.357,0.622,0.586,�k��,0.9,��
2021/11/21,19:10,0.594,0.895,0.564,1.098,0.769,0.357,0.621,0.587,��,1.4,��
2021/11/21,19:20,0.594,0.894,0.565,1.098,0.770,0.357,0.621,0.587,��,1.4,��
2021/11/21,19:30,0.594,0.896,0.566,1.098,0.769,0.358,0.620,0.586,��,1.5,��
2021/11/21,19:40,0.594,0.895,0.565,1.099,0.771,0.359,0.624,0.587,��,1.2,��
2021/11/21,19:50,0.592,0.896,0.565,1.100,0.767,0.358,0.622,0.586,��,1.5,��
2021/11/21,20:00,0.594,0.895,0.565,1.097,0.769,0.359,0.623,0.585,���k��,1.2,��
2021/11/21,20:10,0.593,0.896,0.563,1.098,0.768,0.357,0.622,0.586,�k��,1.7,��
2021/11/21,20:20,0.593,0.895,0.565,1.097,0.770,0.357,0.621,0.586,���k��,1.5,��
2021/11/21,20:30,0.593,0.895,0.566,1.097,0.769,0.357,0.623,0.586,��,1.5,��
2021/11/21,20:40,0.595,0.895,0.564,1.097,0.768,0.357,0.623,0.587,���쐼,1.2,��
2021/11/21,20:50,0.592,0.894,0.564,1.097,0.769,0.358,0.624,0.585,��,1.5,��
2021/11/21,21:00,0.593,0.896,0.566,1.097,0.768,0.358,0.623,0.587,���쐼,1.2,��
2021/11/21,21:10,0.594,0.894,0.564,1.099,0.768,0.358,0.623,0.587,��쐼,0.8,��
2021/11/21,21:20,0.594,0.895,0.564,1.099,0.768,0.359,0.624,0.586,�쐼,1.9,��
2021/11/21,21:30,0.593,0.895,0.567,1.098,0.769,0.358,0.622,0.587,�쐼,1.7,��
2021/11/21,21:40,0.595,0.896,0.566,1.097,0.768,0.358,0.622,0.586,��쐼,1.7,��
2021/11/21,21:50,0.596,0.896,0.565,1.097,0.769,0.358,0.623,0.587,��쐼,1.7,�L
2021/11/21,22:00,0.594,0.895,0.566,1.099,0.769,0.358,0.623,0.587,��쐼,2.0,�L
2021/11/21,22:10,0.593,0.896,0.566,1.099,0.771,0.359,0.624,0.588,��쐼,2.3,�L
2021/11/21,22:20,0.594,0.895,0.566,1.097,0.770,0.358,0.623,0.587,��쐼,2.8,�L
2021/11/21,22:30,0.595,0.897,0.567,1.100,0.768,0.359,0.623,0.587,��쐼,2.5,�L
2021/11/21,22:40,0.597,0.896,0.567,1.100,0.771,0.361,0.623,0.586,��,2.0,�L
2021/11/21,22:50,0.597,0.897,0.567,1.100,0.769,0.360,0.622,0.588,��,1.7,�L
2021/11/21,23:00,0.597,0.898,0.568,1.097,0.771,0.361,0.622,0.585,��,3.1,�L
2021/11/21,23:10,0.595,0.896,0.568,1.098,0.769,0.361,0.622,0.588,��,2.5,�L
2021/11/21,23:20,0.597,0.897,0.567,1.102,0.771,0.362,0.623,0.587,��쐼,2.0,�L
2021/11/21,23:30,0.596,0.897,0.567,1.101,0.770,0.362,0.622,0.587,��,2.6,�L
2021/11/21,23:40,0.596,0.896,0.566,1.100,0.768,0.360,0.622,0.586,��,2.5,��
2021/11/21,23:50,0.595,0.892,0.566,1.099,0.769,0.361,0.623,0.586,��쐼,2.3,��
